Time,TemperatureF,DewpointF,PressureIn,WindDirection,WindDirectionDegrees,WindSpeedMPH,WindSpeedGustMPH,Humidity,HourlyPrecipIn,Conditions,Clouds,dailyrainin,SoftwareType,DateUTC
2013-01-16 00:04:00,35.8,28.4,30.33,NW,315,0.0,0.0,75,0.00,,,0.00,OpenJ2300 V2.0,2013-01-16 08:04:00,
2013-01-16 00:09:00,35.4,28.2,30.33,NW,315,0.0,0.0,75,0.00,,,0.00,OpenJ2300 V2.0,2013-01-16 08:09:00,
2013-01-16 00:14:00,35.4,28.2,30.33,NW,315,0.0,0.0,75,0.00,,,0.00,OpenJ2300 V2.0,2013-01-16 08:14:00,
2013-01-16 00:19:00,35.4,28.5,30.33,NW,315,0.0,0.0,76,0.00,,,0.00,OpenJ2300 V2.0,2013-01-16 08:19:00,
2013-01-16 00:24:00,35.4,28.5,30.32,NW,315,0.0,0.0,76,0.00,,,0.00,OpenJ2300 V2.0,2013-01-16 08:24:00,
2013-01-16 00:30:00,35.4,28.5,30.32,NW,315,0.0,0.0,76,0.00,,,0.00,OpenJ2300 V2.0,2013-01-16 08:30:00,
2013-01-16 01:58:00,33.8,27.7,30.34,NW,315,0.0,0.0,78,0.00,,,0.00,OpenJ2300 V2.0,2013-01-16 09:58:00,
2013-01-16 02:58:00,33.3,27.8,30.34,NW,315,0.0,0.0,80,0.00,,,0.00,OpenJ2300 V2.0,2013-01-16 10:58:00,
2013-01-16 03:58:00,32.7,27.5,30.33,NW,315,0.0,0.0,81,0.00,,,0.00,OpenJ2300 V2.0,2013-01-16 11:58:00,
2013-01-16 04:58:00,32.2,27.0,30.32,NW,315,0.0,0.0,81,0.00,,,0.00,OpenJ2300 V2.0,2013-01-16 12:58:00,
2013-01-16 05:58:00,31.6,27.4,30.31,NW,315,0.0,0.0,82,0.00,,,0.00,OpenJ2300 V2.0,2013-01-16 13:58:00,
2013-01-16 06:58:00,31.3,27.3,30.30,NW,315,0.0,0.0,83,0.00,,,0.00,OpenJ2300 V2.0,2013-01-16 14:58:00,
2013-01-16 07:58:00,31.6,28.1,30.33,NW,315,0.0,0.0,85,0.00,,,0.00,OpenJ2300 V2.0,2013-01-16 15:58:00,
2013-01-16 09:12:00,35.2,28.1,30.33,NW,315,0.0,0.0,84,0.00,,,0.00,OpenJ2300 V2.0,2013-01-16 17:12:00,
2013-01-16 09:17:00,35.4,31.0,30.33,NW,315,0.0,0.0,84,0.00,,,0.00,OpenJ2300 V2.0,2013-01-16 17:17:00,
2013-01-16 09:23:00,36.0,31.0,30.33,NW,315,0.0,0.0,84,0.00,,,0.00,OpenJ2300 V2.0,2013-01-16 17:23:00,
2013-01-16 09:28:00,36.3,31.2,30.33,NW,315,0.0,0.0,84,0.00,,,0.00,OpenJ2300 V2.0,2013-01-16 17:28:00,
2013-01-16 09:34:00,37.0,32.1,30.33,NW,315,0.0,0.0,84,0.00,,,0.00,OpenJ2300 V2.0,2013-01-16 17:34:00,
2013-01-16 09:39:00,37.6,32.3,30.33,NW,315,0.0,0.0,83,0.00,,,0.00,OpenJ2300 V2.0,2013-01-16 17:39:00,
2013-01-16 09:45:00,38.1,32.6,30.32,NW,315,0.0,3.6,82,0.00,,,0.00,OpenJ2300 V2.0,2013-01-16 17:45:00,
2013-01-16 09:50:00,38.8,33.0,30.32,NW,315,0.0,3.6,79,0.00,,,0.00,OpenJ2300 V2.0,2013-01-16 17:50:00,
2013-01-16 09:55:00,38.8,32.9,30.32,NW,315,0.0,3.6,79,0.00,,,0.00,OpenJ2300 V2.0,2013-01-16 17:55:00,
2013-01-16 10:00:00,39.4,33.1,30.32,NW,315,0.0,3.6,79,0.00,,,0.00,OpenJ2300 V2.0,2013-01-16 18:00:00,
2013-01-16 10:05:00,39.9,33.3,30.32,NW,315,0.0,2.9,77,0.00,,,0.00,OpenJ2300 V2.0,2013-01-16 18:05:00,
2013-01-16 10:10:00,40.3,33.3,30.32,NW,315,0.0,2.9,76,0.00,,,0.00,OpenJ2300 V2.0,2013-01-16 18:10:00,
2013-01-16 10:15:00,40.8,33.4,30.30,NW,315,0.0,2.9,75,0.00,,,0.00,OpenJ2300 V2.0,2013-01-16 18:15:00,
2013-01-16 10:20:00,41.2,33.5,30.30,NW,315,3.4,5.6,74,0.00,,,0.00,OpenJ2300 V2.0,2013-01-16 18:20:00,
2013-01-16 10:25:00,41.7,33.4,30.30,NW,315,2.2,5.6,73,0.00,,,0.00,OpenJ2300 V2.0,2013-01-16 18:25:00,
2013-01-16 10:30:00,42.1,33.4,30.30,NW,315,4.9,6.5,71,0.00,,,0.00,OpenJ2300 V2.0,2013-01-16 18:30:00,
2013-01-16 10:35:00,42.6,33.6,30.30,NW,315,0.0,6.5,70,0.00,,,0.00,OpenJ2300 V2.0,2013-01-16 18:35:00,
2013-01-16 10:40:00,43.0,33.6,30.30,NW,315,0.0,6.5,69,0.00,,,0.00,OpenJ2300 V2.0,2013-01-16 18:40:00,
2013-01-16 10:46:00,43.3,33.5,30.30,NW,315,0.0,6.5,68,0.00,,,0.00,OpenJ2300 V2.0,2013-01-16 18:46:00,
2013-01-16 10:51:00,43.7,33.4,30.30,NW,315,0.0,6.5,67,0.00,,,0.00,OpenJ2300 V2.0,2013-01-16 18:51:00,
2013-01-16 10:56:00,44.2,33.6,30.30,NW,315,0.0,6.5,66,0.00,,,0.00,OpenJ2300 V2.0,2013-01-16 18:56:00,
2013-01-16 11:01:00,44.4,33.7,30.30,NW,315,5.8,5.8,66,0.00,,,0.00,OpenJ2300 V2.0,2013-01-16 19:01:00,
2013-01-16 11:06:00,45.0,33.9,30.30,NW,315,0.0,5.8,65,0.00,,,0.00,OpenJ2300 V2.0,2013-01-16 19:06:00,
2013-01-16 11:11:00,45.1,34.0,30.30,NW,315,2.9,5.8,65,0.00,,,0.00,OpenJ2300 V2.0,2013-01-16 19:11:00,
2013-01-16 11:16:00,45.5,34.0,30.28,NW,315,0.0,6.3,65,0.00,,,0.00,OpenJ2300 V2.0,2013-01-16 19:16:00,
2013-01-16 11:22:00,46.0,33.7,30.28,NW,315,0.0,6.3,62,0.00,,,0.00,OpenJ2300 V2.0,2013-01-16 19:22:00,
2013-01-16 11:27:00,46.2,33.7,30.28,NW,315,0.0,6.3,62,0.00,,,0.00,OpenJ2300 V2.0,2013-01-16 19:27:00,
2013-01-16 11:33:00,46.6,33.5,30.28,NW,315,0.0,6.3,61,0.00,,,0.00,OpenJ2300 V2.0,2013-01-16 19:33:00,
2013-01-16 11:38:00,46.9,33.4,30.28,NW,315,0.0,6.7,60,0.00,,,0.00,OpenJ2300 V2.0,2013-01-16 19:38:00,
2013-01-16 11:44:00,47.1,33.3,30.27,NW,315,0.0,6.7,59,0.00,,,0.00,OpenJ2300 V2.0,2013-01-16 19:44:00,
2013-01-16 11:49:00,47.1,33.5,30.27,NW,315,3.6,6.7,59,0.00,,,0.00,OpenJ2300 V2.0,2013-01-16 19:49:00,
2013-01-16 11:54:00,47.3,32.8,30.27,NW,315,0.0,6.7,57,0.00,,,0.00,OpenJ2300 V2.0,2013-01-16 19:54:00,
2013-01-16 11:59:00,47.7,33.1,30.27,NW,315,0.0,6.7,57,0.00,,,0.00,OpenJ2300 V2.0,2013-01-16 19:59:00,
2013-01-16 12:04:00,47.8,32.8,30.27,NW,315,0.0,6.5,56,0.00,,,0.00,OpenJ2300 V2.0,2013-01-16 20:04:00,
2013-01-16 12:09:00,48.0,33.0,30.27,NW,315,4.9,6.7,56,0.00,,,0.00,OpenJ2300 V2.0,2013-01-16 20:09:00,
2013-01-16 12:14:00,48.4,32.9,30.25,NW,315,0.0,6.7,55,0.00,,,0.00,OpenJ2300 V2.0,2013-01-16 20:14:00,
2013-01-16 12:19:00,48.6,33.1,30.25,NW,315,3.8,6.7,55,0.00,,,0.00,OpenJ2300 V2.0,2013-01-16 20:19:00,
2013-01-16 12:24:00,48.7,33.2,30.25,NW,315,0.0,6.7,55,0.00,,,0.00,OpenJ2300 V2.0,2013-01-16 20:24:00,
2013-01-16 12:29:00,48.9,32.9,30.25,NW,315,0.0,6.0,54,0.00,,,0.00,OpenJ2300 V2.0,2013-01-16 20:29:00,
2013-01-16 12:34:00,49.3,32.8,30.25,NW,315,4.9,6.3,53,0.00,,,0.00,OpenJ2300 V2.0,2013-01-16 20:34:00,
2013-01-16 12:39:00,49.6,32.7,30.25,NW,315,0.0,6.9,52,0.00,,,0.00,OpenJ2300 V2.0,2013-01-16 20:39:00,
2013-01-16 12:44:00,50.2,33.2,30.22,NW,315,0.0,6.9,52,0.00,,,0.00,OpenJ2300 V2.0,2013-01-16 20:44:00,
2013-01-16 12:49:00,50.7,33.3,30.22,WNW,293,0.0,6.9,51,0.00,,,0.00,OpenJ2300 V2.0,2013-01-16 20:49:00,
2013-01-16 12:55:00,50.7,33.3,30.22,NW,315,0.0,7.2,51,0.00,,,0.00,OpenJ2300 V2.0,2013-01-16 20:55:00,
2013-01-16 13:00:00,51.1,33.2,30.22,NW,315,0.0,7.2,50,0.00,,,0.00,OpenJ2300 V2.0,2013-01-16 21:00:00,
2013-01-16 13:05:00,51.3,32.8,30.22,NW,315,0.0,7.2,49,0.00,,,0.00,OpenJ2300 V2.0,2013-01-16 21:05:00,
2013-01-16 13:10:00,51.6,32.5,30.22,NW,315,4.0,7.2,48,0.00,,,0.00,OpenJ2300 V2.0,2013-01-16 21:10:00,
2013-01-16 13:15:00,52.0,32.8,30.22,NW,315,0.0,6.7,48,0.00,,,0.00,OpenJ2300 V2.0,2013-01-16 21:15:00,
2013-01-16 13:20:00,52.0,32.8,30.22,NW,315,0.0,6.7,48,0.00,,,0.00,OpenJ2300 V2.0,2013-01-16 21:20:00,
2013-01-16 13:25:00,52.2,33.2,30.22,NW,315,1.8,6.0,48,0.00,,,0.00,OpenJ2300 V2.0,2013-01-16 21:25:00,
2013-01-16 13:30:00,52.3,33.2,30.22,WNW,293,6.3,8.1,48,0.00,,,0.00,OpenJ2300 V2.0,2013-01-16 21:30:00,
2013-01-16 13:35:00,52.7,33.5,30.22,WNW,293,2.7,8.1,48,0.00,,,0.00,OpenJ2300 V2.0,2013-01-16 21:35:00,
2013-01-16 13:40:00,52.9,33.7,30.22,WNW,293,4.0,8.1,48,0.00,,,0.00,OpenJ2300 V2.0,2013-01-16 21:40:00,
2013-01-16 13:45:00,52.9,33.4,30.20,WNW,293,0.0,8.1,47,0.00,,,0.00,OpenJ2300 V2.0,2013-01-16 21:45:00,
2013-01-16 13:50:00,53.2,33.4,30.20,WNW,293,0.0,6.5,47,0.00,,,0.00,OpenJ2300 V2.0,2013-01-16 21:50:00,
2013-01-16 13:55:00,53.2,34.0,30.20,NW,315,0.0,7.4,48,0.00,,,0.00,OpenJ2300 V2.0,2013-01-16 21:55:00,
2013-01-16 14:00:00,53.4,32.5,30.20,NW,315,3.1,7.4,45,0.00,,,0.00,OpenJ2300 V2.0,2013-01-16 22:00:00,
2013-01-16 14:05:00,53.4,33.0,30.20,WNW,293,6.3,7.4,46,0.00,,,0.00,OpenJ2300 V2.0,2013-01-16 22:05:00,
2013-01-16 14:11:00,53.6,33.2,30.20,WNW,293,3.4,7.4,46,0.00,,,0.00,OpenJ2300 V2.0,2013-01-16 22:11:00,
2013-01-16 14:16:00,53.8,32.8,30.20,WNW,293,0.0,6.5,45,0.00,,,0.00,OpenJ2300 V2.0,2013-01-16 22:16:00,
2013-01-16 14:21:00,54.1,32.6,30.20,WNW,293,0.0,6.5,44,0.00,,,0.00,OpenJ2300 V2.0,2013-01-16 22:21:00,
2013-01-16 14:26:00,54.1,33.1,30.20,WNW,293,0.0,6.3,45,0.00,,,0.00,OpenJ2300 V2.0,2013-01-16 22:26:00,
2013-01-16 14:31:00,54.3,33.3,30.20,WNW,293,2.7,5.8,45,0.00,,,0.00,OpenJ2300 V2.0,2013-01-16 22:31:00,
2013-01-16 14:36:00,54.3,33.3,30.20,WNW,293,0.0,5.8,45,0.00,,,0.00,OpenJ2300 V2.0,2013-01-16 22:36:00,
2013-01-16 14:41:00,54.1,33.7,30.20,West,270,0.0,6.5,46,0.00,,,0.00,OpenJ2300 V2.0,2013-01-16 22:41:00,
2013-01-16 14:46:00,54.3,33.7,30.19,NW,315,5.6,8.5,46,0.00,,,0.00,OpenJ2300 V2.0,2013-01-16 22:46:00,
2013-01-16 14:52:00,54.5,33.3,30.19,NW,315,0.0,8.5,45,0.00,,,0.00,OpenJ2300 V2.0,2013-01-16 22:52:00,
2013-01-16 14:57:00,54.7,33.4,30.19,WNW,293,0.0,8.5,45,0.00,,,0.00,OpenJ2300 V2.0,2013-01-16 22:57:00,
2013-01-16 15:03:00,54.7,33.6,30.19,WNW,293,3.1,8.5,45,0.00,,,0.00,OpenJ2300 V2.0,2013-01-16 23:03:00,
2013-01-16 15:08:00,54.9,33.6,30.19,WNW,293,3.1,6.9,45,0.00,,,0.00,OpenJ2300 V2.0,2013-01-16 23:08:00,
2013-01-16 15:13:00,55.0,33.4,30.19,WNW,293,0.0,5.8,44,0.00,,,0.00,OpenJ2300 V2.0,2013-01-16 23:13:00,
2013-01-16 15:19:00,55.2,33.4,30.19,WNW,293,4.3,5.8,44,0.00,,,0.00,OpenJ2300 V2.0,2013-01-16 23:19:00,
2013-01-16 15:24:00,55.2,33.5,30.19,WNW,293,0.0,5.8,44,0.00,,,0.00,OpenJ2300 V2.0,2013-01-16 23:24:00,
2013-01-16 15:30:00,55.2,35.2,30.19,WNW,293,0.0,5.8,47,0.00,,,0.00,OpenJ2300 V2.0,2013-01-16 23:30:00,
2013-01-16 15:35:00,55.2,33.5,30.19,WNW,293,0.0,5.8,44,0.00,,,0.00,OpenJ2300 V2.0,2013-01-16 23:35:00,
2013-01-16 15:40:00,55.2,35.2,30.19,WNW,293,3.4,5.8,47,0.00,,,0.00,OpenJ2300 V2.0,2013-01-16 23:40:00,
2013-01-16 15:45:00,55.2,36.3,30.19,WNW,293,0.0,5.1,49,0.00,,,0.00,OpenJ2300 V2.0,2013-01-16 23:45:00,
2013-01-16 15:50:00,55.2,35.2,30.19,WNW,293,0.0,5.1,47,0.00,,,0.00,OpenJ2300 V2.0,2013-01-16 23:50:00,
2013-01-16 15:55:00,55.2,34.1,30.19,WNW,293,0.0,6.7,46,0.00,,,0.00,OpenJ2300 V2.0,2013-01-16 23:55:00,
2013-01-16 16:00:00,55.2,35.2,30.19,WNW,293,0.0,6.7,46,0.00,,,0.00,OpenJ2300 V2.0,2013-01-17 00:00:00,
2013-01-16 16:05:00,55.2,34.6,30.19,WNW,293,0.0,6.7,46,0.00,,,0.00,OpenJ2300 V2.0,2013-01-17 00:05:00,
2013-01-16 16:10:00,55.4,34.3,30.19,WNW,293,0.0,6.7,45,0.00,,,0.00,OpenJ2300 V2.0,2013-01-17 00:10:00,
2013-01-16 16:15:00,55.2,34.1,30.20,WNW,293,0.0,4.3,46,0.00,,,0.00,OpenJ2300 V2.0,2013-01-17 00:15:00,
2013-01-16 16:20:00,55.2,33.5,30.20,WNW,293,0.0,5.6,44,0.00,,,0.00,OpenJ2300 V2.0,2013-01-17 00:20:00,
2013-01-16 16:25:00,55.2,33.5,30.20,WNW,293,0.0,5.6,44,0.00,,,0.00,OpenJ2300 V2.0,2013-01-17 00:25:00,
2013-01-16 16:30:00,55.2,33.0,30.20,WNW,293,0.0,5.6,43,0.00,,,0.00,OpenJ2300 V2.0,2013-01-17 00:30:00,
2013-01-16 16:35:00,55.2,34.1,30.20,WNW,293,4.0,5.6,45,0.00,,,0.00,OpenJ2300 V2.0,2013-01-17 00:35:00,
2013-01-16 16:40:00,55.2,33.5,30.20,WNW,293,0.0,4.5,44,0.00,,,0.00,OpenJ2300 V2.0,2013-01-17 00:40:00,
2013-01-16 16:45:00,55.0,33.9,30.19,WNW,293,0.0,4.5,45,0.00,,,0.00,OpenJ2300 V2.0,2013-01-17 00:45:00,
2013-01-16 16:51:00,54.7,33.9,30.19,WNW,293,0.0,4.5,45,0.00,,,0.00,OpenJ2300 V2.0,2013-01-17 00:51:00,
2013-01-16 16:56:00,54.5,34.2,30.19,WNW,293,0.0,4.5,46,0.00,,,0.00,OpenJ2300 V2.0,2013-01-17 00:56:00,
2013-01-16 17:01:00,54.3,33.8,30.19,WNW,293,0.0,4.5,46,0.00,,,0.00,OpenJ2300 V2.0,2013-01-17 01:01:00,
2013-01-16 17:07:00,54.1,33.8,30.19,WNW,293,0.0,0.0,46,0.00,,,0.00,OpenJ2300 V2.0,2013-01-17 01:07:00,
2013-01-16 17:12:00,54.1,33.7,30.19,WNW,293,0.0,0.0,46,0.00,,,0.00,OpenJ2300 V2.0,2013-01-17 01:12:00,
2013-01-16 17:18:00,54.1,33.7,30.21,WNW,293,0.0,0.0,46,0.00,,,0.00,OpenJ2300 V2.0,2013-01-17 01:18:00,
2013-01-16 17:23:00,53.8,34.2,30.21,WNW,293,0.0,0.0,47,0.00,,,0.00,OpenJ2300 V2.0,2013-01-17 01:23:00,
2013-01-16 17:28:00,53.8,34.5,30.21,WNW,293,0.0,0.0,48,0.00,,,0.00,OpenJ2300 V2.0,2013-01-17 01:28:00,
2013-01-16 17:33:00,53.4,34.7,30.21,WNW,293,0.0,0.0,49,0.00,,,0.00,OpenJ2300 V2.0,2013-01-17 01:33:00,
2013-01-16 17:38:00,52.9,34.8,30.21,WNW,293,0.0,0.0,49,0.00,,,0.00,OpenJ2300 V2.0,2013-01-17 01:38:00,
2013-01-16 17:43:00,52.5,34.4,30.21,WNW,293,0.0,0.0,50,0.00,,,0.00,OpenJ2300 V2.0,2013-01-17 01:43:00,
2013-01-16 17:48:00,52.0,34.4,30.19,WNW,293,0.0,0.0,51,0.00,,,0.00,OpenJ2300 V2.0,2013-01-17 01:48:00,
2013-01-16 17:53:00,51.6,34.5,30.19,WNW,293,0.0,0.0,52,0.00,,,0.00,OpenJ2300 V2.0,2013-01-17 01:53:00,
2013-01-16 17:58:00,50.9,33.9,30.19,WNW,293,0.0,0.0,52,0.00,,,0.00,OpenJ2300 V2.0,2013-01-17 01:58:00,
2013-01-16 18:03:00,50.5,34.0,30.19,WNW,293,0.0,0.0,53,0.00,,,0.00,OpenJ2300 V2.0,2013-01-17 02:03:00,
2013-01-16 18:08:00,50.2,33.7,30.19,WNW,293,0.0,0.0,53,0.00,,,0.00,OpenJ2300 V2.0,2013-01-17 02:08:00,
2013-01-16 18:13:00,49.6,34.1,30.19,WNW,293,0.0,0.0,55,0.00,,,0.00,OpenJ2300 V2.0,2013-01-17 02:13:00,
2013-01-16 18:19:00,49.1,33.6,30.18,WNW,293,0.0,0.0,55,0.00,,,0.00,OpenJ2300 V2.0,2013-01-17 02:19:00,
2013-01-16 18:24:00,48.7,33.7,30.18,WNW,293,0.0,0.0,56,0.00,,,0.00,OpenJ2300 V2.0,2013-01-17 02:24:00,
2013-01-16 18:29:00,48.2,33.7,30.18,WNW,293,0.0,0.0,57,0.00,,,0.00,OpenJ2300 V2.0,2013-01-17 02:29:00,
2013-01-16 18:34:00,48.0,33.7,30.18,WNW,293,0.0,0.0,57,0.00,,,0.00,OpenJ2300 V2.0,2013-01-17 02:34:00,
2013-01-16 18:39:00,47.8,33.5,30.18,WNW,293,0.0,0.0,57,0.00,,,0.00,OpenJ2300 V2.0,2013-01-17 02:39:00,
2013-01-16 18:44:00,47.8,33.6,30.18,WNW,293,0.0,0.0,58,0.00,,,0.00,OpenJ2300 V2.0,2013-01-17 02:44:00,
2013-01-16 18:49:00,47.3,33.2,30.19,WNW,293,0.0,0.0,58,0.00,,,0.00,OpenJ2300 V2.0,2013-01-17 02:49:00,
2013-01-16 18:54:00,47.1,33.5,30.19,WNW,293,0.0,0.0,59,0.00,,,0.00,OpenJ2300 V2.0,2013-01-17 02:54:00,
2013-01-16 18:59:00,46.9,33.8,30.19,WNW,293,0.0,0.0,60,0.00,,,0.00,OpenJ2300 V2.0,2013-01-17 02:59:00,
2013-01-16 19:05:00,46.8,33.6,30.19,WNW,293,0.0,0.0,60,0.00,,,0.00,OpenJ2300 V2.0,2013-01-17 03:05:00,
2013-01-16 19:10:00,46.6,33.4,30.19,WNW,293,0.0,0.0,60,0.00,,,0.00,OpenJ2300 V2.0,2013-01-17 03:10:00,
2013-01-16 19:15:00,46.2,33.5,30.19,WNW,293,0.0,0.0,61,0.00,,,0.00,OpenJ2300 V2.0,2013-01-17 03:15:00,
2013-01-16 19:20:00,46.0,33.3,30.18,WNW,293,0.0,0.0,61,0.00,,,0.00,OpenJ2300 V2.0,2013-01-17 03:20:00,
2013-01-16 19:25:00,45.7,33.4,30.18,WNW,293,0.0,0.0,62,0.00,,,0.00,OpenJ2300 V2.0,2013-01-17 03:25:00,
2013-01-16 19:30:00,45.3,33.0,30.18,WNW,293,0.0,0.0,62,0.00,,,0.00,OpenJ2300 V2.0,2013-01-17 03:30:00,
2013-01-16 19:35:00,45.1,33.3,30.18,WNW,293,0.0,0.0,63,0.00,,,0.00,OpenJ2300 V2.0,2013-01-17 03:35:00,
2013-01-16 19:40:00,45.0,33.5,30.18,WNW,293,0.0,0.0,64,0.00,,,0.00,OpenJ2300 V2.0,2013-01-17 03:40:00,
2013-01-16 19:45:00,44.4,33.0,30.18,WNW,293,0.0,0.0,64,0.00,,,0.00,OpenJ2300 V2.0,2013-01-17 03:45:00,
2013-01-16 19:50:00,44.4,33.0,30.19,WNW,293,0.0,0.0,64,0.00,,,0.00,OpenJ2300 V2.0,2013-01-17 03:50:00,
2013-01-16 19:55:00,44.2,32.6,30.19,WNW,293,0.0,0.0,64,0.00,,,0.00,OpenJ2300 V2.0,2013-01-17 03:55:00,
2013-01-16 20:00:00,43.9,32.8,30.19,WNW,293,0.0,0.0,65,0.00,,,0.00,OpenJ2300 V2.0,2013-01-17 04:00:00,
2013-01-16 20:06:00,43.7,32.8,30.19,WNW,293,0.0,0.0,65,0.00,,,0.00,OpenJ2300 V2.0,2013-01-17 04:06:00,
2013-01-16 20:11:00,43.5,32.5,30.19,WNW,293,0.0,0.0,65,0.00,,,0.00,OpenJ2300 V2.0,2013-01-17 04:11:00,
2013-01-16 20:17:00,43.3,32.9,30.18,WNW,293,0.0,0.0,66,0.00,,,0.00,OpenJ2300 V2.0,2013-01-17 04:17:00,
2013-01-16 20:22:00,43.2,33.1,30.18,WNW,293,0.0,0.0,67,0.00,,,0.00,OpenJ2300 V2.0,2013-01-17 04:22:00,
2013-01-16 20:27:00,43.0,32.9,30.18,WNW,293,0.0,0.0,67,0.00,,,0.00,OpenJ2300 V2.0,2013-01-17 04:27:00,
2013-01-16 20:33:00,42.6,33.2,30.18,WNW,293,0.0,0.0,68,0.00,,,0.00,OpenJ2300 V2.0,2013-01-17 04:33:00,
2013-01-16 20:38:00,42.6,33.2,30.18,WNW,293,0.0,0.0,69,0.00,,,0.00,OpenJ2300 V2.0,2013-01-17 04:38:00,
2013-01-16 20:43:00,42.4,33.2,30.18,WNW,293,0.0,0.0,69,0.00,,,0.00,OpenJ2300 V2.0,2013-01-17 04:43:00,
2013-01-16 20:49:00,42.1,33.0,30.17,WNW,293,0.0,0.0,69,0.00,,,0.00,OpenJ2300 V2.0,2013-01-17 04:49:00,
2013-01-16 20:54:00,41.9,32.7,30.17,WNW,293,0.0,0.0,69,0.00,,,0.00,OpenJ2300 V2.0,2013-01-17 04:54:00,
2013-01-16 20:59:00,41.9,32.5,30.17,WNW,293,0.0,0.0,69,0.00,,,0.00,OpenJ2300 V2.0,2013-01-17 04:59:00,
2013-01-16 21:04:00,41.7,32.7,30.17,WNW,293,0.0,0.0,70,0.00,,,0.00,OpenJ2300 V2.0,2013-01-17 05:04:00,
2013-01-16 21:10:00,41.5,32.5,30.17,WNW,293,0.0,0.0,70,0.00,,,0.00,OpenJ2300 V2.0,2013-01-17 05:10:00,
2013-01-16 21:15:00,41.4,32.7,30.17,WNW,293,0.0,0.0,71,0.00,,,0.00,OpenJ2300 V2.0,2013-01-17 05:15:00,
2013-01-16 21:20:00,41.2,32.5,30.17,WNW,293,0.0,0.0,71,0.00,,,0.00,OpenJ2300 V2.0,2013-01-17 05:20:00,
2013-01-16 21:25:00,41.0,32.6,30.17,WNW,293,0.0,0.0,72,0.00,,,0.00,OpenJ2300 V2.0,2013-01-17 05:25:00,
2013-01-16 21:30:00,40.8,32.8,30.17,WNW,293,0.0,0.0,73,0.00,,,0.00,OpenJ2300 V2.0,2013-01-17 05:30:00,
2013-01-16 21:35:00,40.8,32.5,30.17,WNW,293,0.0,0.0,72,0.00,,,0.00,OpenJ2300 V2.0,2013-01-17 05:35:00,
2013-01-16 21:40:00,40.6,32.3,30.17,WNW,293,0.0,0.0,72,0.00,,,0.00,OpenJ2300 V2.0,2013-01-17 05:40:00,
2013-01-16 21:45:00,40.5,32.1,30.17,WNW,293,0.0,0.0,72,0.00,,,0.00,OpenJ2300 V2.0,2013-01-17 05:45:00,
2013-01-16 21:50:00,40.3,31.9,30.17,WNW,293,0.0,0.0,72,0.00,,,0.00,OpenJ2300 V2.0,2013-01-17 05:50:00,
2013-01-16 21:55:00,39.9,31.6,30.17,WNW,293,0.0,0.0,72,0.00,,,0.00,OpenJ2300 V2.0,2013-01-17 05:55:00,
2013-01-16 22:00:00,39.9,31.9,30.17,WNW,293,0.0,0.0,73,0.00,,,0.00,OpenJ2300 V2.0,2013-01-17 06:00:00,
2013-01-16 22:05:00,39.9,31.9,30.17,WNW,293,0.0,0.0,73,0.00,,,0.00,OpenJ2300 V2.0,2013-01-17 06:05:00,
2013-01-16 22:10:00,39.9,31.9,30.17,WNW,293,0.0,0.0,73,0.00,,,0.00,OpenJ2300 V2.0,2013-01-17 06:10:00,
2013-01-16 22:16:00,39.7,31.7,30.17,WNW,293,0.0,0.0,73,0.00,,,0.00,OpenJ2300 V2.0,2013-01-17 06:16:00,
2013-01-16 22:21:00,39.7,31.9,30.17,WNW,293,0.0,0.0,74,0.00,,,0.00,OpenJ2300 V2.0,2013-01-17 06:21:00,
2013-01-16 22:26:00,39.6,31.7,30.17,WNW,293,0.0,0.0,74,0.00,,,0.00,OpenJ2300 V2.0,2013-01-17 06:26:00,
2013-01-16 22:31:00,39.6,31.7,30.17,WNW,293,0.0,0.0,74,0.00,,,0.00,OpenJ2300 V2.0,2013-01-17 06:31:00,
2013-01-16 22:36:00,39.4,31.7,30.17,WNW,293,0.0,0.0,74,0.00,,,0.00,OpenJ2300 V2.0,2013-01-17 06:36:00,
2013-01-16 22:41:00,39.4,31.7,30.17,WNW,293,0.0,0.0,74,0.00,,,0.00,OpenJ2300 V2.0,2013-01-17 06:41:00,
2013-01-16 22:46:00,39.4,31.7,30.17,WNW,293,0.0,0.0,74,0.00,,,0.00,OpenJ2300 V2.0,2013-01-17 06:46:00,
2013-01-16 22:51:00,39.0,31.7,30.17,WNW,293,0.0,0.0,75,0.00,,,0.00,OpenJ2300 V2.0,2013-01-17 06:51:00,
2013-01-16 22:56:00,39.0,31.7,30.17,WNW,293,0.0,0.0,75,0.00,,,0.00,OpenJ2300 V2.0,2013-01-17 06:56:00,
2013-01-16 23:01:00,38.8,31.9,30.17,WNW,293,0.0,0.0,76,0.00,,,0.00,OpenJ2300 V2.0,2013-01-17 07:01:00,
2013-01-16 23:06:00,38.7,31.4,30.17,WNW,293,0.0,0.0,75,0.00,,,0.00,OpenJ2300 V2.0,2013-01-17 07:06:00,
2013-01-16 23:11:00,38.5,31.6,30.17,WNW,293,0.0,0.0,76,0.00,,,0.00,OpenJ2300 V2.0,2013-01-17 07:11:00,
2013-01-16 23:16:00,38.3,31.4,30.17,WNW,293,0.0,0.0,76,0.00,,,0.00,OpenJ2300 V2.0,2013-01-17 07:16:00,
2013-01-16 23:21:00,38.1,31.2,30.17,WNW,293,0.0,0.0,76,0.00,,,0.00,OpenJ2300 V2.0,2013-01-17 07:21:00,
2013-01-16 23:27:00,37.9,31.4,30.17,WNW,293,0.0,0.0,77,0.00,,,0.00,OpenJ2300 V2.0,2013-01-17 07:27:00,
2013-01-16 23:32:00,37.9,31.4,30.17,WNW,293,0.0,0.0,77,0.00,,,0.00,OpenJ2300 V2.0,2013-01-17 07:32:00,
2013-01-16 23:37:00,37.8,31.2,30.17,WNW,293,0.0,0.0,77,0.00,,,0.00,OpenJ2300 V2.0,2013-01-17 07:37:00,
2013-01-16 23:42:00,37.6,31.0,30.17,WNW,293,0.0,0.0,77,0.00,,,0.00,OpenJ2300 V2.0,2013-01-17 07:42:00,
2013-01-16 23:47:00,37.4,30.8,30.17,WNW,293,0.0,0.0,77,0.00,,,0.00,OpenJ2300 V2.0,2013-01-17 07:47:00,
2013-01-16 23:52:00,37.2,30.8,30.17,WNW,293,0.0,0.0,77,0.00,,,0.00,OpenJ2300 V2.0,2013-01-17 07:52:00,
2013-01-16 23:58:00,37.2,30.7,30.17,WNW,293,0.0,0.0,77,0.00,,,0.00,OpenJ2300 V2.0,2013-01-17 07:58:00,